User: anonymous   Login
Location: Unspecified
(0.0000°N, 0.0000°E)
Time: 09:18:11
(UTC+00:00)
Language:

COSMOS 2401 - Orbit

View from above orbital plane
View from above orbital plane
View from above satellite
View from above satellite

Ground track
Ground track

The orbit data is extracted from the following two-line orbital elements,

1 27869U 03037B   17268.88657691 -.00000001 +00000-0 -72970-4 0  9991
2 27869 082.4732 165.3740 0021967 185.6086 174.4746 12.45450928641267
Epoch (UTC): 25 September 2017 21:16:40
Eccentricity: 0.0021967
inclination: 82.4732°
perigee height: 1466 km
apogee height: 1501 km
right ascension of ascending node: 165.3740°
argument of perigee: 185.6086°
revolutions per day: 12.45450928
mean anomaly at epoch: 174.4746°
orbit number at epoch: 64126

The dashed part of the orbit path shows where the satellite is in the earth's shadow,  

DLR